リー彗星

P/1998 Y2 ( Li )

English version
Home page
Updated on May 17, 1999

---------------------------------------------------------------------

・ プロフィール

発見日 1998年12月26日
発見光度 16.2等
発見者 W.-d. Li (Lick Observatory)

・ 写真集

・ 軌道要素

   The following improved orbital elements by Kenji Muraoka, are
  from 117 observations 1998 Sept. 23 to 1999 Feb. 26, perturbations
  by 9 Planets, Moon and 5 minor planets were taken into account. 
   The mean residual is +/- 0.67 arc seconds.

      Epoch  =  1998 Dec. 13.0  TT       JDT = 2451160.5
          T  =  1998 Dec. 17.80643       +/- 0.00490 (m.e.) TT
       Peri. =  318.98081                +/- 0.00172
       Node  =   91.83204                +/- 0.00194   (2000.0)
       Incl. =   24.32374                +/- 0.00060
          q  =    2.5188204              +/- 0.0001513 AU
          e  =    0.5885503              +/- 0.0000166
          a  =    6.1218187              +/- 0.0002729 AU
          n  =    0.06507039             +/- 0.00000435
          P  =   15.147                  +/- 0.0010129  years
                                        (+/- 0.37 day)

・ 星図

・ 光度変化

        m1 = 10.0 + 5 logΔ + 10.0 log r

---------------------------------------------------------------------

軌道要素は村岡健治氏の計算によるものです。
星図は StellaNavigator Ver.2.0 for Windows (アストロアーツ 編著 / アスキー出版局刊) で作成したものです。
光度グラフはComet for Windowsで作成したものです。

---------------------------------------------------------------------

Copyright(C) Seiichi Yoshida (comet@aerith.net). All rights reserved.